THOR ABLESTAR DEB, 141

Orbit data source: Space-Track

THOR ABLESTAR DEB, 141 is space debris in LEO originally from a launch on Thu, 29 Jun 1961 UTC launched from the Air Force Eastern Test Range (AFETR). Debris objects in space refer to the collection of defunct objects orbiting the Earth. Examples of debris include non-operational satellites, rocket bodies, and fragments generated from explosions, collisions, or faulty payload assembly.

Loading next visibility...
Identifier
141, 1961-015AB
Orbit
LEO
Country
Flag of USUS
Related business
Manufacturer
Unknown
Mission
Spacecraft
Bus & Motor
Unknown
Mass
Unknown
Launch date (UTC)
1961-06-29 (64 years ago)
Launch vehicle
Unknown
Launch site
Air Force Eastern Test Range (AFETR)
Object type
Payload
Rocket body
Debris
Shape & HBR
Unknown
Radar Cross Section
Medium (>0.1 m² and <1 m²)

Expand to show TLE details & history
Last TLE update: 8 hours ago

TLE from 8 hours ago
0 THOR ABLESTAR DEB
1 00141U 61015AB  25245.81007535  .00000624  00000-0  57280-3 0  9993
2 00141  66.5903  29.5042 0061425 238.1046 121.4045 13.88722406231915
Epoch: 2025-09-02T19:26Z
TLE epoch observation values (Epoch: 2025-09-02T19:26:30.51Z)
Latitude
-0.00002°
Longitude
115.68109°
Altitude
958.773 km
Speed
7.361 km/s
True Right ascension
01h 58m 01s
True Declination
0° 00' 00"
Sunlit
Object was in full shadow at epoch
Visualization orbit readout
Latitude
Unknown
Longitude
Unknown
Altitude
Unknown
Speed
Unknown
Apparent Right ascension
Unknown
Apparent Declination
Unknown
Sunlit
N/A
Visualization observer readout
Local Sidereal Time
19:24:31
Azimuth
Unknown
Elevation
Unknown
Doppler factor
Unknown
Orbital elements
Apogee altitude
976.43 km
Perigee altitude
886.631 km
Semi-major axis
7,309.668 km
Eccentricity
0.00614
Inclination
66.5903°
RAAN
29.5042°
Arg. of periapsis
238.1046°
True anomaly
122.00286°
Mean anomaly
121.4045°
Eccentric anomaly
121.70392°
Mean motion
3.47294 °/min
Orbital period
103.66 mins
BSTAR
0.0005728
Loading maneuver chart data...
Computing Atmospheric mass density...

Documentation

Showing up to 5 results
|